RH
19 20 19 21 22 21 19 19 19 17 14 12 11 13 13 16 17 21 24 33 49 55 53 50 52 52 53 53 51 48 40 39 38 38 36 32 31 31 32 33 33 31 30 32 35
20 23 20 23 24 24 24 25 23 21 17 13 12 13 14 17 19 19 25 29 46 56 56 49 50 51 51 52 52 53 45 39 38 36 34 31 31 31 31 33 33 32 30 33 35
21 26 28 27 29 31 31 28 26 24 20 16 14 14 15 19 20 18 26 30 42 53 60 52 48 47 50 50 51 53 49 39 37 34 32 33 34 33 31 31 30 29 27 29 29
24 29 35 36 35 35 35 34 29 26 24 19 17 16 16 22 23 21 25 32 39 50 56 57 52 50 53 48 48 48 47 43 42 39 36 35 34 32 30 29 27 25 23 25 26
29 34 39 45 42 41 41 39 35 29 26 22 19 17 19 24 22 24 25 32 40 44 51 57 56 51 56 48 46 47 46 43 42 40 38 34 31 29 28 25 21 20 20 22 23
34 43 44 51 53 50 46 42 39 31 27 24 20 18 23 28 25 26 25 31 39 45 50 55 54 54 51 58 57 50 47 44 40 38 36 33 30 27 25 19 18 18 19 19 21
35 43 50 52 54 51 49 45 40 32 27 26 20 21 27 27 26 28 27 31 39 43 49 61 58 53 50 56 53 49 50 42 39 37 32 30 25 22 17 18 18 18 18 18 18
36 41 52 53 52 51 50 45 39 31 27 24 22 27 29 30 30 29 30 30 40 44 45 57 58 53 53 48 54 58 46 39 36 35 32 27 23 19 18 18 18 18 17 18 18
37 43 50 52 51 51 47 44 36 29 26 23 30 34 34 32 33 30 31 31 37 45 45 48 55 52 48 53 56 47 41 36 34 33 33 28 22 19 17 17 18 17 17 19 18
38 39 42 47 48 48 46 39 31 25 27 31 41 40 37 36 36 31 32 32 34 42 49 48 50 50 54 52 53 53 45 36 33 36 33 25 19 18 17 16 16 17 17 19 19
35 40 43 45 45 43 37 30 28 30 34 44 45 40 40 40 36 32 34 33 34 36 42 54 56 58 63 58 49 44 38 34 35 31 26 22 19 15 15 16 16 17 18 19 20
31 33 35 36 35 32 31 36 42 52 50 47 46 43 41 40 38 34 35 35 35 37 37 37 40 40 37 37 35 33 33 34 30 26 22 20 17 14 15 16 16 17 18 20 22
26 27 28 29 31 34 42 53 60 59 50 47 45 43 44 44 41 37 41 37 35 36 37 34 34 33 32 32 35 37 34 26 23 22 19 19 17 15 14 15 16 17 19 21 22
24 27 29 33 43 50 61 63 61 57 51 49 48 47 47 47 46 34 40 40 38 36 35 32 34 37 37 37 35 30 25 23 22 21 23 20 24 16 16 17 18 19 19 20 22
32 34 41 48 56 66 62 60 60 62 62 51 48 49 46 45 51 39 42 41 41 39 38 35 37 38 35 31 26 23 22 22 22 23 23 21 25 16 17 21 21 22 22 23 25
37 41 46 55 65 59 57 57 61 58 54 51 54 48 52 55 48 45 48 41 44 42 42 40 38 33 30 28 25 22 20 23 28 28 27 23 22 22 23 26 24 22 24 24 24
39 44 52 64 59 55 54 57 53 59 51 52 55 51 46 51 42 41 41 41 40 34 31 31 31 26 23 22 21 21 24 29 22 30 26 27 28 25 24 24 25 24 23 23 24
39 43 53 56 52 51 55 55 53 49 48 48 49 47 42 48 43 36 35 36 27 26 27 24 23 21 20 20 22 24 25 28 23 30 33 27 30 25 23 22 22 23 23 25 27
31 41 51 46 47 50 54 49 50 43 41 39 37 35 33 33 34 29 28 27 22 20 21 23 21 22 24 24 25 27 29 27 30 29 29 27 22 23 22 21 23 24 26 27 27
29 37 48 48 43 45 49 49 44 38 34 31 29 27 28 27 27 29 28 28 25 23 23 22 22 23 24 25 26 26 27 29 32 26 24 27 26 28 25 25 26 26 27 27 28
27 35 44 45 41 42 46 46 42 37 34 33 33 33 33 32 32 31 29 28 27 23 23 23 23 21 23 24 26 28 28 29 29 32 33 31 24 24 26 27 27 27 27 28 29
28 30 38 43 40 41 41 39 38 38 34 31 32 32 33 31 31 30 30 29 27 24 20 21 22 21 20 21 22 24 25 27 32 26 35 40 35 27 27 27 28 30 30 31 34
30 27 28 34 36 39 37 33 34 33 31 28 28 29 29 28 28 29 29 28 26 24 24 23 22 23 22 25 25 23 25 29 32 35 38 40 33 29 30 31 32 34 37 39 38
30 28 28 32 33 34 33 32 32 30 28 26 26 24 24 25 28 30 29 29 29 28 28 25 26 24 28 26 28 27 26 29 31 42 34 36 32 34 37 38 39 38 35 32 27
30 27 29 31 34 35 34 34 32 31 30 30 29 29 28 28 30 36 35 31 27 28 26 25 23 26 27 29 31 32 32 33 34 35 38 38 40 35 31 31 31 29 27 26 26
34 34 33 32 31 35 34 34 33 34 31 31 29 29 28 28 25 28 30 29 27 29 27 29 30 35 35 39 41 42 43 43 42 39 36 30 26 24 25 25 26 27 27 29 31
34 33 31 32 30 33 33 33 34 31 29 28 27 26 25 26 27 29 30 32 35 36 37 38 42 45 46 46 44 40 32 30 27 24 22 22 21 24 27 30 33 35 36 36 36